Year,Month,Day,Hour,Minute,Value (Times are PST for temperature in C)
2009,08,03,00,00,20.80
2009,08,03,00,01,20.80
2009,08,03,00,02,20.80
2009,08,03,00,03,20.70
2009,08,03,00,04,20.70
2009,08,03,00,05,20.70
2009,08,03,00,06,20.70
2009,08,03,00,07,20.60
2009,08,03,00,08,20.60
2009,08,03,00,09,20.60
2009,08,03,00,10,20.50
2009,08,03,00,11,20.50
2009,08,03,00,12,20.40
2009,08,03,00,13,20.40
2009,08,03,00,14,20.40
2009,08,03,00,15,20.40
2009,08,03,00,16,20.30
2009,08,03,00,17,20.30
2009,08,03,00,18,20.30
2009,08,03,00,19,20.30
2009,08,03,00,20,20.30
2009,08,03,00,21,20.30
2009,08,03,00,22,20.30
2009,08,03,00,23,20.30
2009,08,03,00,24,20.40
2009,08,03,00,25,20.40
2009,08,03,00,26,20.40
2009,08,03,00,27,20.40
2009,08,03,00,28,20.40
2009,08,03,00,29,20.40
2009,08,03,00,30,20.30
2009,08,03,00,31,20.30
2009,08,03,00,32,20.30
2009,08,03,00,33,20.30
2009,08,03,00,34,20.30
2009,08,03,00,35,20.30
2009,08,03,00,36,20.30
2009,08,03,00,37,20.20
2009,08,03,00,38,20.20
2009,08,03,00,39,20.20
2009,08,03,00,40,20.20
2009,08,03,00,41,20.10
2009,08,03,00,42,20.10
2009,08,03,00,43,20.10
2009,08,03,00,44,20.10
2009,08,03,00,45,20.00
2009,08,03,00,46,20.00
2009,08,03,00,47,20.00
2009,08,03,00,48,19.90
2009,08,03,00,49,19.90
2009,08,03,00,50,19.90
2009,08,03,00,51,19.90
2009,08,03,00,52,19.80
2009,08,03,00,53,19.80
2009,08,03,00,54,19.80
2009,08,03,00,55,19.80
2009,08,03,00,56,19.70
2009,08,03,00,57,19.70
2009,08,03,00,58,19.70
2009,08,03,00,59,19.70
2009,08,03,01,00,19.60
2009,08,03,01,01,19.60
2009,08,03,01,02,19.60
2009,08,03,01,03,19.60
2009,08,03,01,04,19.50
2009,08,03,01,05,19.50
2009,08,03,01,06,19.50
2009,08,03,01,07,19.50
2009,08,03,01,08,19.40
2009,08,03,01,09,19.40
2009,08,03,01,10,19.40
2009,08,03,01,11,19.40
2009,08,03,01,12,19.40
2009,08,03,01,13,19.40
2009,08,03,01,14,19.40
2009,08,03,01,15,19.40
2009,08,03,01,16,19.40
2009,08,03,01,17,19.40
2009,08,03,01,18,19.40
2009,08,03,01,19,19.40
2009,08,03,01,20,19.40
2009,08,03,01,21,19.40
2009,08,03,01,22,19.30
2009,08,03,01,23,19.30
2009,08,03,01,24,19.30
2009,08,03,01,25,19.30
2009,08,03,01,26,19.30
2009,08,03,01,27,19.30
2009,08,03,01,28,19.30
2009,08,03,01,29,19.30
2009,08,03,01,30,19.30
2009,08,03,01,31,19.30
2009,08,03,01,32,19.30
2009,08,03,01,33,19.30
2009,08,03,01,34,19.30
2009,08,03,01,35,19.30
2009,08,03,01,36,19.30
2009,08,03,01,37,19.30
2009,08,03,01,38,19.30
2009,08,03,01,39,19.30
2009,08,03,01,40,19.30
2009,08,03,01,41,19.30
2009,08,03,01,42,19.30
2009,08,03,01,43,19.30
2009,08,03,01,44,19.30
2009,08,03,01,45,19.30
2009,08,03,01,46,19.30
2009,08,03,01,47,19.30
2009,08,03,01,48,19.20
2009,08,03,01,49,19.20
2009,08,03,01,50,19.20
2009,08,03,01,51,19.20
2009,08,03,01,52,19.20
2009,08,03,01,53,19.20
2009,08,03,01,54,19.20
2009,08,03,01,55,19.20
2009,08,03,01,56,19.20
2009,08,03,01,57,19.10
2009,08,03,01,58,19.10
2009,08,03,01,59,19.10
2009,08,03,02,00,19.10
2009,08,03,02,01,19.10
2009,08,03,02,02,19.00
2009,08,03,02,03,19.00
2009,08,03,02,04,19.00
2009,08,03,02,05,19.00
2009,08,03,02,06,19.00
2009,08,03,02,07,19.10
2009,08,03,02,08,19.10
2009,08,03,02,09,19.10
2009,08,03,02,10,19.10
2009,08,03,02,11,19.10
2009,08,03,02,12,19.10
2009,08,03,02,13,19.10
2009,08,03,02,14,19.10
2009,08,03,02,15,19.10
2009,08,03,02,16,19.10
2009,08,03,02,17,19.10
2009,08,03,02,18,19.10
2009,08,03,02,19,19.10
2009,08,03,02,20,19.10
2009,08,03,02,21,19.10
2009,08,03,02,22,19.10
2009,08,03,02,23,19.10
2009,08,03,02,24,19.00
2009,08,03,02,25,19.00
2009,08,03,02,26,19.00
2009,08,03,02,27,19.00
2009,08,03,02,28,19.00
2009,08,03,02,29,19.00
2009,08,03,02,30,19.00
2009,08,03,02,31,19.00
2009,08,03,02,32,19.00
2009,08,03,02,33,19.00
2009,08,03,02,34,19.00
2009,08,03,02,35,19.00
2009,08,03,02,36,19.00
2009,08,03,02,37,19.00
2009,08,03,02,38,19.00
2009,08,03,02,39,19.00
2009,08,03,02,40,19.00
2009,08,03,02,41,19.00
2009,08,03,02,42,19.00
2009,08,03,02,43,19.00
2009,08,03,02,44,19.00
2009,08,03,02,45,19.00
2009,08,03,02,46,19.00
2009,08,03,02,47,19.00
2009,08,03,02,48,19.00
2009,08,03,02,49,19.00
2009,08,03,02,50,19.00
2009,08,03,02,51,18.90
2009,08,03,02,52,18.90
2009,08,03,02,53,18.90
2009,08,03,02,54,18.90
2009,08,03,02,55,18.90
2009,08,03,02,56,18.90
2009,08,03,02,57,18.90
2009,08,03,02,58,18.90
2009,08,03,02,59,18.90
2009,08,03,03,00,18.90
2009,08,03,03,01,18.90
2009,08,03,03,02,18.90
2009,08,03,03,03,18.90
2009,08,03,03,04,18.90
2009,08,03,03,05,18.90
2009,08,03,03,06,18.90
2009,08,03,03,07,18.90
2009,08,03,03,08,18.80
2009,08,03,03,09,18.80
2009,08,03,03,10,18.80
2009,08,03,03,11,18.80
2009,08,03,03,12,18.80
2009,08,03,03,13,18.80
2009,08,03,03,14,18.70
2009,08,03,03,15,18.70
2009,08,03,03,16,18.60
2009,08,03,03,17,18.60
2009,08,03,03,18,18.50
2009,08,03,03,19,18.40
2009,08,03,03,20,18.40
2009,08,03,03,21,18.30
2009,08,03,03,22,18.30
2009,08,03,03,23,18.20
2009,08,03,03,24,18.10
2009,08,03,03,25,18.00
2009,08,03,03,26,17.90
2009,08,03,03,27,17.80
2009,08,03,03,28,17.70
2009,08,03,03,29,17.60
2009,08,03,03,30,17.50
2009,08,03,03,31,17.50
2009,08,03,03,32,17.40
2009,08,03,03,33,17.40
2009,08,03,03,34,17.40
2009,08,03,03,35,17.40
2009,08,03,03,36,17.30
2009,08,03,03,37,17.30
2009,08,03,03,38,17.30
2009,08,03,03,39,17.30
2009,08,03,03,40,17.20
2009,08,03,03,41,17.20
2009,08,03,03,42,17.20
2009,08,03,03,43,17.10
2009,08,03,03,44,17.10
2009,08,03,03,45,17.00
2009,08,03,03,46,17.00
2009,08,03,03,47,16.90
2009,08,03,03,48,16.90
2009,08,03,03,49,16.80
2009,08,03,03,50,16.80
2009,08,03,03,51,16.80
2009,08,03,03,52,16.70
2009,08,03,03,53,16.70
2009,08,03,03,54,16.70
2009,08,03,03,55,16.60
2009,08,03,03,56,16.60
2009,08,03,03,57,16.60
2009,08,03,03,58,16.50
2009,08,03,03,59,16.50
2009,08,03,04,00,16.40
2009,08,03,04,01,16.40
2009,08,03,04,02,16.40
2009,08,03,04,03,16.40
2009,08,03,04,04,16.40
2009,08,03,04,05,16.50
2009,08,03,04,06,16.60
2009,08,03,04,07,16.60
2009,08,03,04,08,16.80
2009,08,03,04,09,16.80
2009,08,03,04,10,16.90
2009,08,03,04,11,17.00
2009,08,03,04,12,17.10
2009,08,03,04,13,17.20
2009,08,03,04,14,17.30
2009,08,03,04,15,17.40
2009,08,03,04,16,17.40
2009,08,03,04,17,17.50
2009,08,03,04,18,17.60
2009,08,03,04,19,17.70
2009,08,03,04,20,17.80
2009,08,03,04,21,17.80
2009,08,03,04,22,17.90
2009,08,03,04,23,18.00
2009,08,03,04,24,18.10
2009,08,03,04,25,18.10
2009,08,03,04,26,18.10
2009,08,03,04,27,18.10
2009,08,03,04,28,18.10
2009,08,03,04,29,18.10
2009,08,03,04,30,18.10
2009,08,03,04,31,18.10
2009,08,03,04,32,18.10
2009,08,03,04,33,18.00
2009,08,03,04,34,17.90
2009,08,03,04,35,17.80
2009,08,03,04,36,17.70
2009,08,03,04,37,17.60
2009,08,03,04,38,17.50
2009,08,03,04,39,17.30
2009,08,03,04,40,17.20
2009,08,03,04,41,17.10
2009,08,03,04,42,17.00
2009,08,03,04,43,16.90
2009,08,03,04,44,16.80
2009,08,03,04,45,16.80
2009,08,03,04,46,16.70
2009,08,03,04,47,16.70
2009,08,03,04,48,16.60
2009,08,03,04,49,16.60
2009,08,03,04,50,16.50
2009,08,03,04,51,16.50
2009,08,03,04,52,16.40
2009,08,03,04,53,16.40
2009,08,03,04,54,16.30
2009,08,03,04,55,16.30
2009,08,03,04,56,16.30
2009,08,03,04,57,16.20
2009,08,03,04,58,16.20
2009,08,03,04,59,16.10
2009,08,03,05,00,16.10
2009,08,03,05,01,16.10
2009,08,03,05,02,16.00
2009,08,03,05,03,16.00
2009,08,03,05,04,16.00
2009,08,03,05,05,15.90
2009,08,03,05,06,15.90
2009,08,03,05,07,15.90
2009,08,03,05,08,15.90
2009,08,03,05,09,15.90
2009,08,03,05,10,15.90
2009,08,03,05,11,15.80
2009,08,03,05,12,15.80
2009,08,03,05,13,15.80
2009,08,03,05,14,15.80
2009,08,03,05,15,15.80
2009,08,03,05,16,15.80
2009,08,03,05,17,15.80
2009,08,03,05,18,15.80
2009,08,03,05,19,15.80
2009,08,03,05,20,15.80
2009,08,03,05,21,15.80
2009,08,03,05,22,15.90
2009,08,03,05,23,15.90
2009,08,03,05,24,16.00
2009,08,03,05,25,16.10
2009,08,03,05,26,16.10
2009,08,03,05,27,16.20
2009,08,03,05,28,16.20
2009,08,03,05,29,16.30
2009,08,03,05,30,16.30
2009,08,03,05,31,16.40
2009,08,03,05,32,16.40
2009,08,03,05,33,16.40
2009,08,03,05,34,16.40
2009,08,03,05,35,16.50
2009,08,03,05,36,16.50
2009,08,03,05,37,16.50
2009,08,03,05,38,16.50
2009,08,03,05,39,16.50
2009,08,03,05,40,16.50
2009,08,03,05,41,16.50
2009,08,03,05,42,16.50
2009,08,03,05,43,16.50
2009,08,03,05,44,16.50
2009,08,03,05,45,16.60
2009,08,03,05,46,16.60
2009,08,03,05,47,16.60
2009,08,03,05,48,16.60
2009,08,03,05,49,16.60
2009,08,03,05,50,16.60
2009,08,03,05,51,16.60
2009,08,03,05,52,16.60
2009,08,03,05,53,16.60
2009,08,03,05,54,16.70
2009,08,03,05,55,16.70
2009,08,03,05,56,16.70
2009,08,03,05,57,16.70
2009,08,03,05,58,16.80
2009,08,03,05,59,16.80
2009,08,03,06,00,16.90
2009,08,03,06,01,16.90
2009,08,03,06,02,16.90
2009,08,03,06,03,17.00
2009,08,03,06,04,17.00
2009,08,03,06,05,17.00
2009,08,03,06,06,17.00
2009,08,03,06,07,17.00
2009,08,03,06,08,16.90
2009,08,03,06,09,16.90
2009,08,03,06,10,16.90
2009,08,03,06,11,16.90
2009,08,03,06,12,16.90
2009,08,03,06,13,16.80
2009,08,03,06,14,16.80
2009,08,03,06,15,16.80
2009,08,03,06,16,16.70
2009,08,03,06,17,16.70
2009,08,03,06,18,16.60
2009,08,03,06,19,16.60
2009,08,03,06,20,16.50
2009,08,03,06,21,16.40
2009,08,03,06,22,16.30
2009,08,03,06,23,16.10
2009,08,03,06,24,16.10
2009,08,03,06,25,16.00
2009,08,03,06,26,15.90
2009,08,03,06,27,15.80
2009,08,03,06,28,15.80
2009,08,03,06,29,15.80
2009,08,03,06,30,15.70
2009,08,03,06,31,15.70
2009,08,03,06,32,15.60
2009,08,03,06,33,15.60
2009,08,03,06,34,15.60
2009,08,03,06,35,15.60
2009,08,03,06,36,15.60
2009,08,03,06,37,15.70
2009,08,03,06,38,15.70
2009,08,03,06,39,15.80
2009,08,03,06,40,15.90
2009,08,03,06,41,16.00
2009,08,03,06,42,16.10
2009,08,03,06,43,16.20
2009,08,03,06,44,16.30
2009,08,03,06,45,16.40
2009,08,03,06,46,16.60
2009,08,03,06,47,16.70
2009,08,03,06,48,16.80
2009,08,03,06,49,16.90
2009,08,03,06,50,17.00
2009,08,03,06,51,17.10
2009,08,03,06,52,17.20
2009,08,03,06,53,17.30
2009,08,03,06,54,17.30
2009,08,03,06,55,17.40
2009,08,03,06,56,17.50
2009,08,03,06,57,17.50
2009,08,03,06,58,17.60
2009,08,03,06,59,17.60
2009,08,03,07,00,17.60
2009,08,03,07,01,17.70
2009,08,03,07,02,17.70
2009,08,03,07,03,17.70
2009,08,03,07,04,17.80
2009,08,03,07,05,17.80
2009,08,03,07,06,17.80
2009,08,03,07,07,17.80
2009,08,03,07,08,17.90
2009,08,03,07,09,17.90
2009,08,03,07,10,17.90
2009,08,03,07,11,17.90
2009,08,03,07,12,17.90
2009,08,03,07,13,17.90
2009,08,03,07,14,18.00
2009,08,03,07,15,18.00
2009,08,03,07,16,18.00
2009,08,03,07,17,18.10
2009,08,03,07,18,18.10
2009,08,03,07,19,18.10
2009,08,03,07,20,18.20
2009,08,03,07,21,18.20
2009,08,03,07,22,18.20
2009,08,03,07,23,18.20
2009,08,03,07,24,18.30
2009,08,03,07,25,18.30
2009,08,03,07,26,18.30
2009,08,03,07,27,18.30
2009,08,03,07,28,18.40
2009,08,03,07,29,18.40
2009,08,03,07,30,18.40
2009,08,03,07,31,18.50
2009,08,03,07,32,18.50
2009,08,03,07,33,18.60
2009,08,03,07,34,18.60
2009,08,03,07,35,18.60
2009,08,03,07,36,18.60
2009,08,03,07,37,18.60
2009,08,03,07,38,18.70
2009,08,03,07,39,18.70
2009,08,03,07,40,18.80
2009,08,03,07,41,18.80
2009,08,03,07,42,18.80
2009,08,03,07,43,18.90
2009,08,03,07,44,18.90
2009,08,03,07,45,18.90
2009,08,03,07,46,19.00
2009,08,03,07,47,19.00
2009,08,03,07,48,19.10
2009,08,03,07,49,19.10
2009,08,03,07,50,19.20
2009,08,03,07,51,19.30
2009,08,03,07,52,19.30
2009,08,03,07,53,19.30
2009,08,03,07,54,19.40
2009,08,03,07,55,19.40
2009,08,03,07,56,19.50
2009,08,03,07,57,19.50
2009,08,03,07,58,19.60
2009,08,03,07,59,19.60
2009,08,03,08,00,19.60
2009,08,03,08,01,19.70
2009,08,03,08,02,19.70
2009,08,03,08,03,19.80
2009,08,03,08,04,19.80
2009,08,03,08,05,19.80
2009,08,03,08,06,19.80
2009,08,03,08,07,19.80
2009,08,03,08,08,19.80
2009,08,03,08,09,19.90
2009,08,03,08,10,19.90
2009,08,03,08,11,19.90
2009,08,03,08,12,19.90
2009,08,03,08,13,19.90
2009,08,03,08,14,19.90
2009,08,03,08,15,19.90
2009,08,03,08,16,19.90
2009,08,03,08,17,20.00
2009,08,03,08,18,20.00
2009,08,03,08,19,20.00
2009,08,03,08,20,20.00
2009,08,03,08,21,20.00
2009,08,03,08,22,20.10
2009,08,03,08,23,20.10
2009,08,03,08,24,20.10
2009,08,03,08,25,20.20
2009,08,03,08,26,20.20
2009,08,03,08,27,20.20
2009,08,03,08,28,20.20
2009,08,03,08,29,20.30
2009,08,03,08,30,20.30
2009,08,03,08,31,20.40
2009,08,03,08,32,20.40
2009,08,03,08,33,20.50
2009,08,03,08,34,20.50
2009,08,03,08,35,20.60
2009,08,03,08,36,20.60
2009,08,03,08,37,20.60
2009,08,03,08,38,20.60
2009,08,03,08,39,20.60
2009,08,03,08,40,20.60
2009,08,03,08,41,20.60
2009,08,03,08,42,20.50
2009,08,03,08,43,20.40
2009,08,03,08,44,20.40
2009,08,03,08,45,20.30
2009,08,03,08,46,20.30
2009,08,03,08,47,20.30
2009,08,03,08,48,20.20
2009,08,03,08,49,20.10
2009,08,03,08,50,20.10
2009,08,03,08,51,20.10
2009,08,03,08,52,20.10
2009,08,03,08,53,20.00
2009,08,03,08,54,20.00
2009,08,03,08,55,20.10
2009,08,03,08,56,20.10
2009,08,03,08,57,20.10
2009,08,03,08,58,20.10
2009,08,03,08,59,20.20
2009,08,03,09,00,20.20
2009,08,03,09,01,20.20
2009,08,03,09,02,20.20
2009,08,03,09,03,20.10
2009,08,03,09,04,20.20
2009,08,03,09,05,20.20
2009,08,03,09,06,20.30
2009,08,03,09,07,20.30
2009,08,03,09,08,20.30
2009,08,03,09,09,20.30
2009,08,03,09,10,20.40
2009,08,03,09,11,20.40
2009,08,03,09,12,20.50
2009,08,03,09,13,20.60
2009,08,03,09,14,20.70
2009,08,03,09,15,20.70
2009,08,03,09,16,20.80
2009,08,03,09,17,20.80
2009,08,03,09,18,20.90
2009,08,03,09,19,20.80
2009,08,03,09,20,20.80
2009,08,03,09,21,20.80
2009,08,03,09,22,20.70
2009,08,03,09,23,20.70
2009,08,03,09,24,20.70
2009,08,03,09,25,20.70
2009,08,03,09,26,20.80
2009,08,03,09,27,20.70
2009,08,03,09,28,20.60
2009,08,03,09,29,20.60
2009,08,03,09,30,20.50
2009,08,03,09,31,20.50
2009,08,03,09,32,20.40
2009,08,03,09,33,20.40
2009,08,03,09,34,20.50
2009,08,03,09,35,20.40
2009,08,03,09,36,20.30
2009,08,03,09,37,20.30
2009,08,03,09,38,20.30
2009,08,03,09,39,20.20
2009,08,03,09,40,20.20
2009,08,03,09,41,20.10
2009,08,03,09,42,20.10
2009,08,03,09,43,20.10
2009,08,03,09,44,20.10
2009,08,03,09,45,20.10
2009,08,03,09,46,20.10
2009,08,03,09,47,20.20
2009,08,03,09,48,20.20
2009,08,03,09,49,20.20
2009,08,03,09,50,20.20
2009,08,03,09,51,20.20
2009,08,03,09,52,20.20
2009,08,03,09,53,20.20
2009,08,03,09,54,20.30
2009,08,03,09,55,20.40
2009,08,03,09,56,20.50
2009,08,03,09,57,20.60
2009,08,03,09,58,20.70
2009,08,03,09,59,20.80
2009,08,03,10,00,20.90
2009,08,03,10,01,20.90
2009,08,03,10,02,20.90
2009,08,03,10,03,20.90
2009,08,03,10,04,20.80
2009,08,03,10,05,20.80
2009,08,03,10,06,20.80
2009,08,03,10,07,20.70
2009,08,03,10,08,20.70
2009,08,03,10,09,20.70
2009,08,03,10,10,20.70
2009,08,03,10,11,20.80
2009,08,03,10,12,20.80
2009,08,03,10,13,20.80
2009,08,03,10,14,20.80
2009,08,03,10,15,20.90
2009,08,03,10,16,20.90
2009,08,03,10,17,21.00
2009,08,03,10,18,21.10
2009,08,03,10,19,21.20
2009,08,03,10,20,21.40
2009,08,03,10,21,21.50
2009,08,03,10,22,21.60
2009,08,03,10,23,21.70
2009,08,03,10,24,21.80
2009,08,03,10,25,21.80
2009,08,03,10,26,21.90
2009,08,03,10,27,22.00
2009,08,03,10,28,22.00
2009,08,03,10,29,22.00
2009,08,03,10,30,21.90
2009,08,03,10,31,21.80
2009,08,03,10,32,21.80
2009,08,03,10,33,21.80
2009,08,03,10,34,21.70
2009,08,03,10,35,21.60
2009,08,03,10,36,21.50
2009,08,03,10,37,21.50
2009,08,03,10,38,21.50
2009,08,03,10,39,21.50
2009,08,03,10,40,21.50
2009,08,03,10,41,21.40
2009,08,03,10,42,21.40
2009,08,03,10,43,21.50
2009,08,03,10,44,21.60
2009,08,03,10,45,21.60
2009,08,03,10,46,21.70
2009,08,03,10,47,21.80
2009,08,03,10,48,21.80
2009,08,03,10,49,21.90
2009,08,03,10,50,22.00
2009,08,03,10,51,22.10
2009,08,03,10,52,22.10
2009,08,03,10,53,22.10
2009,08,03,10,54,22.10
2009,08,03,10,55,22.10
2009,08,03,10,56,22.10
2009,08,03,10,57,22.20
2009,08,03,10,58,22.10
2009,08,03,10,59,22.00
2009,08,03,11,00,21.80
2009,08,03,11,01,21.70
2009,08,03,11,02,21.50
2009,08,03,11,03,21.40
2009,08,03,11,04,21.40
2009,08,03,11,05,21.30
2009,08,03,11,06,21.20
2009,08,03,11,07,21.20
2009,08,03,11,08,21.10
2009,08,03,11,09,21.10
2009,08,03,11,10,21.00
2009,08,03,11,11,21.10
2009,08,03,11,12,21.10
2009,08,03,11,13,21.10
2009,08,03,11,14,21.20
2009,08,03,11,15,21.20
2009,08,03,11,16,21.20
2009,08,03,11,17,21.20
2009,08,03,11,18,21.20
2009,08,03,11,19,21.30
2009,08,03,11,20,21.30
2009,08,03,11,21,21.30
2009,08,03,11,22,21.30
2009,08,03,11,23,21.30
2009,08,03,11,24,21.40
2009,08,03,11,25,21.40
2009,08,03,11,26,21.50
2009,08,03,11,27,21.60
2009,08,03,11,28,21.60
2009,08,03,11,29,21.80
2009,08,03,11,30,21.80
2009,08,03,11,31,21.80
2009,08,03,11,32,21.80
2009,08,03,11,33,21.80
2009,08,03,11,34,21.80
2009,08,03,11,35,21.90
2009,08,03,11,36,22.00
2009,08,03,11,37,22.10
2009,08,03,11,38,22.10
2009,08,03,11,39,22.20
2009,08,03,11,40,22.20
2009,08,03,11,41,22.20
2009,08,03,11,42,22.30
2009,08,03,11,43,22.20
2009,08,03,11,44,22.20
2009,08,03,11,45,22.20
2009,08,03,11,46,22.10
2009,08,03,11,47,22.10
2009,08,03,11,48,22.10
2009,08,03,11,49,22.20
2009,08,03,11,50,22.20
2009,08,03,11,51,22.10
2009,08,03,11,52,22.10
2009,08,03,11,53,22.10
2009,08,03,11,54,22.10
2009,08,03,11,55,22.00
2009,08,03,11,56,22.00
2009,08,03,11,57,22.00
2009,08,03,11,58,22.10
2009,08,03,11,59,22.20
2009,08,03,12,00,22.20
2009,08,03,12,01,22.20
2009,08,03,12,02,22.30
2009,08,03,12,03,22.50
2009,08,03,12,04,22.50
2009,08,03,12,05,22.50
2009,08,03,12,06,22.40
2009,08,03,12,07,22.30
2009,08,03,12,08,22.30
2009,08,03,12,09,22.30
2009,08,03,12,10,22.20
2009,08,03,12,11,22.20
2009,08,03,12,12,22.20
2009,08,03,12,13,22.20
2009,08,03,12,14,22.20
2009,08,03,12,15,22.20
2009,08,03,12,16,22.20
2009,08,03,12,17,22.20
2009,08,03,12,18,22.20
2009,08,03,12,19,22.30
2009,08,03,12,20,22.50
2009,08,03,12,21,22.60
2009,08,03,12,22,22.60
2009,08,03,12,23,22.50
2009,08,03,12,24,22.50
2009,08,03,12,25,22.50
2009,08,03,12,26,22.50
2009,08,03,12,27,22.50
2009,08,03,12,28,22.50
2009,08,03,12,29,22.60
2009,08,03,12,30,22.70
2009,08,03,12,31,22.70
2009,08,03,12,32,22.70
2009,08,03,12,33,22.70
2009,08,03,12,34,22.70
2009,08,03,12,35,22.60
2009,08,03,12,36,22.60
2009,08,03,12,37,22.60
2009,08,03,12,38,22.60
2009,08,03,12,39,22.50
2009,08,03,12,40,22.50
2009,08,03,12,41,22.60
2009,08,03,12,42,22.60
2009,08,03,12,43,22.70
2009,08,03,12,44,22.80
2009,08,03,12,45,22.90
2009,08,03,12,46,22.90
2009,08,03,12,47,23.00
2009,08,03,12,48,23.10
2009,08,03,12,49,23.10
2009,08,03,12,50,23.10
2009,08,03,12,51,23.10
2009,08,03,12,52,23.10
2009,08,03,12,53,23.10
2009,08,03,12,54,23.00
2009,08,03,12,55,22.90
2009,08,03,12,56,22.80
2009,08,03,12,57,22.80
2009,08,03,12,58,22.80
2009,08,03,12,59,22.80
2009,08,03,13,00,22.80
2009,08,03,13,01,22.80
2009,08,03,13,02,22.80
2009,08,03,13,03,22.80
2009,08,03,13,04,22.90
2009,08,03,13,05,23.00
2009,08,03,13,06,23.10
2009,08,03,13,07,23.20
2009,08,03,13,08,23.20
2009,08,03,13,09,23.30
2009,08,03,13,10,23.40
2009,08,03,13,11,23.50
2009,08,03,13,12,23.60
2009,08,03,13,13,23.60
2009,08,03,13,14,23.70
2009,08,03,13,15,23.70
2009,08,03,13,16,23.60
2009,08,03,13,17,23.60
2009,08,03,13,18,23.70
2009,08,03,13,19,23.80
2009,08,03,13,20,23.90
2009,08,03,13,21,24.00
2009,08,03,13,22,24.10
2009,08,03,13,23,24.10
2009,08,03,13,24,24.00
2009,08,03,13,25,23.90
2009,08,03,13,26,23.80
2009,08,03,13,27,23.80
2009,08,03,13,28,23.80
2009,08,03,13,29,23.70
2009,08,03,13,30,23.60
2009,08,03,13,31,23.50
2009,08,03,13,32,23.50
2009,08,03,13,33,23.40
2009,08,03,13,34,23.20
2009,08,03,13,35,23.00
2009,08,03,13,36,22.90
2009,08,03,13,37,22.90
2009,08,03,13,38,23.00
2009,08,03,13,39,23.10
2009,08,03,13,40,23.20
2009,08,03,13,41,23.30
2009,08,03,13,42,23.40
2009,08,03,13,43,23.50
2009,08,03,13,44,23.70
2009,08,03,13,45,23.80
2009,08,03,13,46,23.90
2009,08,03,13,47,24.00
2009,08,03,13,48,24.10
2009,08,03,13,49,24.10
2009,08,03,13,50,24.20
2009,08,03,13,51,24.20
2009,08,03,13,52,24.20
2009,08,03,13,53,24.20
2009,08,03,13,54,24.10
2009,08,03,13,55,24.10
2009,08,03,13,56,24.10
2009,08,03,13,57,24.10
2009,08,03,13,58,24.00
2009,08,03,13,59,24.10
2009,08,03,14,00,24.10
2009,08,03,14,01,24.10
2009,08,03,14,02,24.10
2009,08,03,14,03,24.20
2009,08,03,14,04,24.30
2009,08,03,14,05,24.30
2009,08,03,14,06,24.30
2009,08,03,14,07,24.30
2009,08,03,14,08,24.20
2009,08,03,14,09,24.10
2009,08,03,14,10,24.00
2009,08,03,14,11,23.90
2009,08,03,14,12,23.80
2009,08,03,14,13,23.90
2009,08,03,14,14,23.90
2009,08,03,14,15,23.80
2009,08,03,14,16,23.80
2009,08,03,14,17,23.70
2009,08,03,14,18,23.70
2009,08,03,14,19,23.60
2009,08,03,14,20,23.50
2009,08,03,14,21,23.40
2009,08,03,14,22,23.30
2009,08,03,14,23,23.30
2009,08,03,14,24,23.30
2009,08,03,14,25,23.40
2009,08,03,14,26,23.60
2009,08,03,14,27,23.70
2009,08,03,14,28,23.70
2009,08,03,14,29,23.60
2009,08,03,14,30,23.60
2009,08,03,14,31,23.60
2009,08,03,14,32,23.60
2009,08,03,14,33,23.60
2009,08,03,14,34,23.60
2009,08,03,14,35,23.60
2009,08,03,14,36,23.70
2009,08,03,14,37,23.70
2009,08,03,14,38,23.70
2009,08,03,14,39,23.80
2009,08,03,14,40,23.80
2009,08,03,14,41,23.80
2009,08,03,14,42,23.80
2009,08,03,14,43,23.90
2009,08,03,14,44,23.90
2009,08,03,14,45,23.90
2009,08,03,14,46,23.90
2009,08,03,14,47,24.00
2009,08,03,14,48,23.90
2009,08,03,14,49,23.90
2009,08,03,14,50,24.00
2009,08,03,14,51,24.10
2009,08,03,14,52,24.10
2009,08,03,14,53,24.20
2009,08,03,14,54,24.30
2009,08,03,14,55,24.40
2009,08,03,14,56,24.40
2009,08,03,14,57,24.40
2009,08,03,14,58,24.40
2009,08,03,14,59,24.40
2009,08,03,15,00,24.40
2009,08,03,15,01,24.50
2009,08,03,15,02,24.50
2009,08,03,15,03,24.60
2009,08,03,15,04,24.60
2009,08,03,15,05,24.70
2009,08,03,15,06,24.80
2009,08,03,15,07,24.80
2009,08,03,15,08,24.80
2009,08,03,15,09,24.80
2009,08,03,15,10,24.80
2009,08,03,15,11,24.80
2009,08,03,15,12,24.70
2009,08,03,15,13,24.60
2009,08,03,15,14,24.60
2009,08,03,15,15,24.60
2009,08,03,15,16,24.60
2009,08,03,15,17,24.60
2009,08,03,15,18,24.60
2009,08,03,15,19,24.60
2009,08,03,15,20,24.70
2009,08,03,15,21,24.70
2009,08,03,15,22,24.80
2009,08,03,15,23,24.80
2009,08,03,15,24,24.70
2009,08,03,15,25,24.70
2009,08,03,15,26,24.80
2009,08,03,15,27,24.80
2009,08,03,15,28,24.80
2009,08,03,15,29,24.90
2009,08,03,15,30,24.90
2009,08,03,15,31,24.90
2009,08,03,15,32,24.90
2009,08,03,15,33,24.90
2009,08,03,15,34,24.90
2009,08,03,15,35,25.00
2009,08,03,15,36,25.10
2009,08,03,15,37,25.10
2009,08,03,15,38,25.20
2009,08,03,15,39,25.30
2009,08,03,15,40,25.40
2009,08,03,15,41,25.40
2009,08,03,15,42,25.40
2009,08,03,15,43,25.40
2009,08,03,15,44,25.40
2009,08,03,15,45,25.40
2009,08,03,15,46,25.40
2009,08,03,15,47,25.40
2009,08,03,15,48,25.50
2009,08,03,15,49,25.50
2009,08,03,15,50,25.50
2009,08,03,15,51,25.50
2009,08,03,15,52,25.50
2009,08,03,15,53,25.40
2009,08,03,15,54,25.30
2009,08,03,15,55,25.30
2009,08,03,15,56,25.30
2009,08,03,15,57,25.40
2009,08,03,15,58,25.40
2009,08,03,15,59,25.50
2009,08,03,16,00,25.60
2009,08,03,16,01,25.60
2009,08,03,16,02,25.70
2009,08,03,16,03,25.70
2009,08,03,16,04,25.80
2009,08,03,16,05,25.90
2009,08,03,16,06,25.90
2009,08,03,16,07,25.90
2009,08,03,16,08,26.00
2009,08,03,16,09,26.10
2009,08,03,16,10,26.10
2009,08,03,16,11,26.00
2009,08,03,16,12,26.00
2009,08,03,16,13,26.00
2009,08,03,16,14,25.90
2009,08,03,16,15,25.90
2009,08,03,16,16,25.80
2009,08,03,16,17,25.70
2009,08,03,16,18,25.50
2009,08,03,16,19,25.30
2009,08,03,16,20,25.20
2009,08,03,16,21,25.10
2009,08,03,16,22,25.00
2009,08,03,16,23,25.00
2009,08,03,16,24,24.90
2009,08,03,16,25,25.00
2009,08,03,16,26,25.00
2009,08,03,16,27,25.10
2009,08,03,16,28,25.20
2009,08,03,16,29,25.20
2009,08,03,16,30,25.30
2009,08,03,16,31,25.20
2009,08,03,16,32,25.20
2009,08,03,16,33,25.20
2009,08,03,16,34,25.20
2009,08,03,16,35,25.20
2009,08,03,16,36,25.30
2009,08,03,16,37,25.30
2009,08,03,16,38,25.40
2009,08,03,16,39,25.40
2009,08,03,16,40,25.40
2009,08,03,16,41,25.40
2009,08,03,16,42,25.30
2009,08,03,16,43,25.30
2009,08,03,16,44,25.30
2009,08,03,16,45,25.30
2009,08,03,16,46,25.30
2009,08,03,16,47,25.40
2009,08,03,16,48,25.50
2009,08,03,16,49,25.60
2009,08,03,16,50,25.70
2009,08,03,16,51,25.80
2009,08,03,16,52,25.90
2009,08,03,16,53,25.90
2009,08,03,16,54,25.90
2009,08,03,16,55,25.80
2009,08,03,16,56,25.70
2009,08,03,16,57,25.60
2009,08,03,16,58,25.30
2009,08,03,16,59,25.00
2009,08,03,17,00,24.80
2009,08,03,17,01,24.60
2009,08,03,17,02,24.40
2009,08,03,17,03,24.30
2009,08,03,17,04,24.10
2009,08,03,17,05,24.00
2009,08,03,17,06,23.90
2009,08,03,17,07,23.90
2009,08,03,17,08,23.90
2009,08,03,17,09,23.90
2009,08,03,17,10,23.90
2009,08,03,17,11,24.00
2009,08,03,17,12,24.00
2009,08,03,17,13,24.10
2009,08,03,17,14,24.10
2009,08,03,17,15,24.20
2009,08,03,17,16,24.20
2009,08,03,17,17,24.30
2009,08,03,17,18,24.30
2009,08,03,17,19,24.30